time, Switch, Flow(0), Analog(2)
yyyy/mm/dd HH:MM:SS.fff, True=FILTERED|False=TOTAL, L/min, V
2023/06/17 10:00:02.433, True, 4.643, 0.130312
2023/06/17 10:00:02.937, True, 4.643, 0.129931
2023/06/17 10:00:03.433, True, 4.380, 0.128710
2023/06/17 10:00:03.937, True, 3.980, 0.129168
2023/06/17 10:00:04.441, True, 3.315, 0.130617
2023/06/17 10:00:04.937, True, 3.370, 0.129320
2023/06/17 10:00:05.441, True, 2.988, 0.131609
2023/06/17 10:00:05.945, True, 2.981, 0.130159
2023/06/17 10:00:06.441, True, 3.033, 0.129320
2023/06/17 10:00:06.945, True, 3.315, 0.129397
2023/06/17 10:00:07.449, True, 2.985, 0.132219
2023/06/17 10:00:07.945, True, 3.032, 0.129549
2023/06/17 10:00:08.449, True, 2.984, 0.128634
2023/06/17 10:00:08.953, True, 2.985, 0.129015
2023/06/17 10:00:09.449, True, 3.032, 0.128252
2023/06/17 10:00:09.953, True, 3.317, 0.128328
2023/06/17 10:00:10.457, True, 3.315, 0.130999
2023/06/17 10:00:10.961, True, 2.985, 0.129549
2023/06/17 10:00:11.457, True, 3.369, 0.129168
2023/06/17 10:00:11.961, True, 2.985, 0.128786
2023/06/17 10:00:12.465, True, 2.987, 0.128557
2023/06/17 10:00:12.960, True, 3.030, 0.129473
2023/06/17 10:00:13.464, True, 3.316, 0.130922
2023/06/17 10:00:13.969, True, 3.316, 0.132372
2023/06/17 10:00:14.464, True, 3.038, 0.130083
2023/06/17 10:00:14.968, True, 3.310, 0.129854
2023/06/17 10:00:15.464, True, 3.032, 0.128557
2023/06/17 10:00:15.968, True, 2.984, 0.129625
2023/06/17 10:00:16.473, True, 3.316, 0.128252
2023/06/17 10:00:16.969, True, 3.032, 0.128405
2023/06/17 10:00:17.472, True, 2.984, 0.133593
2023/06/17 10:00:17.977, True, 2.986, 0.130617
2023/06/17 10:00:18.472, True, 3.368, 0.128481
2023/06/17 10:00:18.976, True, 2.984, 0.129931
2023/06/17 10:00:19.480, True, 2.989, 0.130388
2023/06/17 10:00:19.985, True, 2.985, 0.131228
2023/06/17 10:00:20.481, True, 3.028, 0.130465
2023/06/17 10:00:20.985, True, 2.988, 0.129549
2023/06/17 10:00:21.489, True, 3.318, 0.132525
2023/06/17 10:00:21.985, True, 3.027, 0.128252
2023/06/17 10:00:22.489, True, 3.316, 0.130999
2023/06/17 10:00:22.993, True, 2.991, 0.130312
2023/06/17 10:00:23.497, True, 2.978, 0.129625
2023/06/17 10:00:23.993, True, 3.370, 0.131075
2023/06/17 10:00:24.497, True, 2.984, 0.129778
2023/06/17 10:00:25.001, True, 2.990, 0.129625
2023/06/17 10:00:25.497, True, 3.365, 0.128862
2023/06/17 10:00:26.001, True, 2.983, 0.132372
2023/06/17 10:00:26.505, True, 2.988, 0.129778
2023/06/17 10:00:27.001, True, 3.029, 0.131991
2023/06/17 10:00:27.505, True, 3.316, 0.131914
2023/06/17 10:00:28.009, True, 2.984, 0.132906
2023/06/17 10:00:28.505, True, 3.033, 0.133211
2023/06/17 10:00:29.008, True, 3.317, 0.133669
2023/06/17 10:00:29.513, True, 2.983, 0.133745
2023/06/17 10:00:30.009, True, 3.033, 0.135119
2023/06/17 10:00:30.513, True, 2.984, 0.133364
2023/06/17 10:00:31.009, True, 3.371, 0.133135
2023/06/17 10:00:31.513, True, 2.984, 0.134737
2023/06/17 10:00:32.017, True, 3.315, 0.133288
2023/06/17 10:00:32.513, True, 3.036, 0.134279
2023/06/17 10:00:33.017, True, 3.314, 0.133593
2023/06/17 10:00:33.521, True, 2.984, 0.134966
2023/06/17 10:00:34.017, True, 3.033, 0.133745
2023/06/17 10:00:34.521, True, 3.319, 0.133516
2023/06/17 10:00:35.025, True, 2.980, 0.135500
2023/06/17 10:00:35.521, True, 3.033, 0.135653
2023/06/17 10:00:36.024, True, 3.316, 0.132753
2023/06/17 10:00:36.529, True, 3.316, 0.134203
2023/06/17 10:00:37.024, True, 3.033, 0.134661
2023/06/17 10:00:37.529, True, 2.985, 0.134432
2023/06/17 10:00:38.032, True, 3.315, 0.135805
2023/06/17 10:00:38.529, True, 3.037, 0.136568
2023/06/17 10:00:39.032, True, 3.319, 0.135805
2023/06/17 10:00:39.537, True, 2.978, 0.136492
2023/06/17 10:00:40.033, True, 3.034, 0.134203
2023/06/17 10:00:40.537, True, 2.983, 0.133974
2023/06/17 10:00:41.041, True, 3.316, 0.136492
2023/06/17 10:00:41.537, True, 3.033, 0.133974
2023/06/17 10:00:42.040, True, 2.985, 0.135042
2023/06/17 10:00:42.545, True, 3.315, 0.134508
2023/06/17 10:00:43.041, True, 3.033, 0.134356
2023/06/17 10:00:43.545, True, 2.985, 0.134279
2023/06/17 10:00:44.049, True, 2.983, 0.133822
2023/06/17 10:00:44.553, True, 3.316, 0.133364
2023/06/17 10:00:45.049, True, 3.038, 0.135805
2023/06/17 10:00:45.552, True, 2.979, 0.135042
2023/06/17 10:00:46.048, True, 3.035, 0.135348
2023/06/17 10:00:46.553, True, 2.982, 0.133822
2023/06/17 10:00:47.057, True, 3.318, 0.134051
2023/06/17 10:00:47.553, True, 3.031, 0.133288
2023/06/17 10:00:48.056, True, 2.985, 0.136339
2023/06/17 10:00:48.561, True, 2.983, 0.133059
2023/06/17 10:00:49.065, True, 3.317, 0.133822
2023/06/17 10:00:49.561, True, 3.032, 0.136721
2023/06/17 10:00:50.065, True, 2.985, 0.135271
2023/06/17 10:00:50.569, True, 3.315, 0.132753
2023/06/17 10:00:51.065, True, 3.033, 0.134813
2023/06/17 10:00:51.569, True, 2.984, 0.134737
2023/06/17 10:00:52.072, True, 3.322, 0.134127
2023/06/17 10:00:52.569, True, 2.691, 0.133135
2023/06/17 10:00:53.073, True, 3.316, 0.133898
2023/06/17 10:00:53.577, True, 2.984, 0.133440
2023/06/17 10:00:54.072, True, 3.370, 0.136034
2023/06/17 10:00:54.577, True, 2.985, 0.135576
2023/06/17 10:00:55.073, True, 3.369, 0.134051
2023/06/17 10:00:55.577, True, 2.984, 0.134585
2023/06/17 10:00:56.081, True, 3.321, 0.136645
2023/06/17 10:00:56.577, True, 3.028, 0.134432
2023/06/17 10:00:57.081, True, 2.984, 0.134279
2023/06/17 10:00:57.585, True, 3.317, 0.135348
2023/06/17 10:00:58.089, True, 2.984, 0.133822
2023/06/17 10:00:58.585, True, 3.032, 0.134737
2023/06/17 10:00:59.089, True, 3.317, 0.132525
2023/06/17 10:00:59.592, True, 2.983, 0.132296
2023/06/17 10:01:00.088, True, 3.033, 0.133364
2023/06/17 10:01:00.593, True, 2.985, 0.134585
2023/06/17 10:01:01.096, True, 2.983, 0.133898
2023/06/17 10:01:01.592, True, 3.370, 0.137179
2023/06/17 10:01:02.097, True, 2.987, 0.133516
2023/06/17 10:01:02.600, True, 2.984, 0.131991
2023/06/17 10:01:03.096, True, 3.030, 0.133593
2023/06/17 10:01:03.601, True, 3.317, 0.133440
2023/06/17 10:01:04.104, True, 2.986, 0.133440
2023/06/17 10:01:04.600, True, 3.031, 0.134813
2023/06/17 10:01:05.105, True, 2.985, 0.134432
2023/06/17 10:01:05.609, True, 3.315, 0.134508
2023/06/17 10:01:06.104, True, 3.034, 0.133669
2023/06/17 10:01:06.609, True, 2.988, 0.132830
2023/06/17 10:01:07.112, True, 2.980, 0.134203
2023/06/17 10:01:07.608, True, 3.371, 0.133364
2023/06/17 10:01:08.113, True, 2.985, 0.131533
2023/06/17 10:01:08.616, True, 2.983, 0.133669
2023/06/17 10:01:09.120, True, 3.317, 0.133364
2023/06/17 10:01:09.617, True, 3.032, 0.134966
2023/06/17 10:01:10.120, True, 2.984, 0.134432
2023/06/17 10:01:10.625, True, 3.322, 0.132906
2023/06/17 10:01:11.120, True, 2.691, 0.133974
2023/06/17 10:01:11.625, True, 3.318, 0.132830
2023/06/17 10:01:12.129, True, 2.988, 0.134051
2023/06/17 10:01:12.625, True, 3.363, 0.134737
2023/06/17 10:01:13.129, True, 2.989, 0.132296
2023/06/17 10:01:13.633, True, 3.311, 0.133898
2023/06/17 10:01:14.129, True, 3.032, 0.135500
2023/06/17 10:01:14.633, True, 3.315, 0.133822
2023/06/17 10:01:15.129, True, 3.033, 0.134127
2023/06/17 10:01:15.633, True, 3.315, 0.131838
2023/06/17 10:01:16.137, True, 2.984, 0.133135
2023/06/17 10:01:16.633, True, 3.370, 0.133593
2023/06/17 10:01:17.137, True, 2.984, 0.133516
2023/06/17 10:01:17.641, True, 3.323, 0.133669
2023/06/17 10:01:18.137, True, 3.026, 0.132296
2023/06/17 10:01:18.641, True, 3.317, 0.132372
2023/06/17 10:01:19.145, True, 2.984, 0.132525
2023/06/17 10:01:19.641, True, 3.033, 0.133059
2023/06/17 10:01:20.144, True, 3.315, 0.133211
2023/06/17 10:01:20.649, True, 2.985, 0.133669
2023/06/17 10:01:21.145, True, 3.032, 0.136339
2023/06/17 10:01:21.649, True, 3.316, 0.132067
2023/06/17 10:01:22.152, True, 3.316, 0.131838
2023/06/17 10:01:22.649, True, 3.033, 0.133822
2023/06/17 10:01:23.153, True, 2.984, 0.133516
2023/06/17 10:01:23.657, True, 2.984, 0.131991
2023/06/17 10:01:24.153, True, 3.032, 0.133593
2023/06/17 10:01:24.657, True, 2.985, 0.133822
2023/06/17 10:01:25.161, True, 3.316, 0.134661
2023/06/17 10:01:25.657, True, 3.033, 0.131456
2023/06/17 10:01:26.161, True, 2.985, 0.131533
2023/06/17 10:01:26.665, True, 3.316, 0.133516
2023/06/17 10:01:27.161, True, 3.032, 0.133516
2023/06/17 10:01:27.665, True, 2.987, 0.130999
2023/06/17 10:01:28.169, True, 3.313, 0.135042
2023/06/17 10:01:28.665, True, 3.033, 0.132677
2023/06/17 10:01:29.168, True, 2.990, 0.134585
2023/06/17 10:01:29.673, True, 2.979, 0.134737
2023/06/17 10:01:30.177, True, 3.316, 0.133898
2023/06/17 10:01:30.673, True, 3.370, 0.132601
2023/06/17 10:01:31.177, True, 2.984, 0.133516
2023/06/17 10:01:31.673, True, 3.033, 0.132448
2023/06/17 10:01:32.177, True, 3.316, 0.134966
2023/06/17 10:01:32.681, True, 2.989, 0.134356
2023/06/17 10:01:33.177, True, 3.028, 0.132830
2023/06/17 10:01:33.681, True, 3.316, 0.134585
2023/06/17 10:01:34.185, True, 2.984, 0.132448
2023/06/17 10:01:34.681, True, 3.034, 0.131914
2023/06/17 10:01:35.185, True, 3.315, 0.132830
2023/06/17 10:01:35.689, True, 2.985, 0.133440
2023/06/17 10:01:36.185, True, 3.032, 0.132372
2023/06/17 10:01:36.689, True, 2.987, 0.132830
2023/06/17 10:01:37.192, True, 3.313, 0.132677
2023/06/17 10:01:37.689, True, 3.033, 0.132448
2023/06/17 10:01:38.193, True, 2.985, 0.131075
2023/06/17 10:01:38.696, True, 2.987, 0.132601
2023/06/17 10:01:39.192, True, 3.366, 0.133974
2023/06/17 10:01:39.697, True, 2.984, 0.132830
2023/06/17 10:01:40.193, True, 3.370, 0.133211
2023/06/17 10:01:40.696, True, 2.984, 0.132525
2023/06/17 10:01:41.200, True, 3.318, 0.130388
2023/06/17 10:01:41.697, True, 3.031, 0.130083
2023/06/17 10:01:42.200, True, 3.317, 0.132372
2023/06/17 10:01:42.704, True, 3.316, 0.134966
2023/06/17 10:01:43.209, True, 2.984, 0.134203
2023/06/17 10:01:43.704, True, 3.032, 0.132143
2023/06/17 10:01:44.208, True, 3.316, 0.131609
2023/06/17 10:01:44.713, True, 2.984, 0.134432
2023/06/17 10:01:45.209, True, 3.033, 0.130541
2023/06/17 10:01:45.712, True, 2.985, 0.132982
2023/06/17 10:01:46.209, True, 3.033, 0.131838
2023/06/17 10:01:46.713, True, 2.984, 0.131685
2023/06/17 10:01:47.217, True, 2.984, 0.132372
2023/06/17 10:01:47.713, True, 3.369, 0.133593
2023/06/17 10:01:48.217, True, 2.984, 0.133974
2023/06/17 10:01:48.721, True, 2.985, 0.133440
2023/06/17 10:01:49.217, True, 3.037, 0.134203
2023/06/17 10:01:49.721, True, 3.310, 0.132677
2023/06/17 10:01:50.224, True, 2.986, 0.132830
2023/06/17 10:01:50.721, True, 3.032, 0.131228
2023/06/17 10:01:51.225, True, 2.984, 0.132525
2023/06/17 10:01:51.729, True, 3.317, 0.132448
2023/06/17 10:01:52.224, True, 3.033, 0.130388
2023/06/17 10:01:52.728, True, 3.313, 0.133288
2023/06/17 10:01:53.232, True, 2.984, 0.130312
2023/06/17 10:01:53.737, True, 2.986, 0.132677
2023/06/17 10:01:54.233, True, 3.033, 0.130999
2023/06/17 10:01:54.737, True, 2.984, 0.133669
2023/06/17 10:01:55.241, True, 3.313, 0.130388
2023/06/17 10:01:55.737, True, 3.038, 0.132525
2023/06/17 10:01:56.241, True, 2.982, 0.130846
2023/06/17 10:01:56.745, True, 2.987, 0.133669
2023/06/17 10:01:57.241, True, 3.363, 0.133669
2023/06/17 10:01:57.745, True, 2.989, 0.131609
2023/06/17 10:01:58.249, True, 3.311, 0.131533
2023/06/17 10:01:58.745, True, 3.032, 0.132677
2023/06/17 10:01:59.249, True, 3.316, 0.132296
2023/06/17 10:01:59.753, True, 2.984, 0.131609
2023/06/17 10:02:00.257, True, 2.987, 0.131456
2023/06/17 10:02:00.753, True, 3.366, 0.131380
2023/06/17 10:02:01.257, True, 2.985, 0.132296
2023/06/17 10:02:01.753, True, 3.031, 0.133211
2023/06/17 10:02:02.257, True, 3.323, 0.130312
2023/06/17 10:02:02.761, True, 2.978, 0.132219
2023/06/17 10:02:03.265, True, 3.317, 0.132219
2023/06/17 10:02:03.760, True, 3.033, 0.132906
2023/06/17 10:02:04.265, True, 3.315, 0.132296
2023/06/17 10:02:04.769, True, 2.984, 0.133974
2023/06/17 10:02:05.265, True, 3.032, 0.132753
2023/06/17 10:02:05.769, True, 3.316, 0.133440
2023/06/17 10:02:06.265, True, 3.033, 0.130007
2023/06/17 10:02:06.769, True, 2.987, 0.130846
2023/06/17 10:02:07.272, True, 3.313, 0.131456
2023/06/17 10:02:07.776, True, 2.985, 0.132753
2023/06/17 10:02:08.272, True, 3.370, 0.131914
2023/06/17 10:02:08.777, True, 2.984, 0.131609
2023/06/17 10:02:09.272, True, 3.370, 0.133059
2023/06/17 10:02:09.777, True, 2.984, 0.131456
2023/06/17 10:02:10.281, True, 3.316, 0.131609
2023/06/17 10:02:10.777, True, 3.033, 0.131609
2023/06/17 10:02:11.281, True, 2.984, 0.132067
2023/06/17 10:02:11.785, True, 2.984, 0.132143
2023/06/17 10:02:12.281, True, 3.033, 0.132372
2023/06/17 10:02:12.784, True, 3.321, 0.133135
2023/06/17 10:02:13.289, True, 2.980, 0.129397
2023/06/17 10:02:13.785, True, 3.369, 0.130541
2023/06/17 10:02:14.289, True, 2.984, 0.130999
2023/06/17 10:02:14.793, True, 3.316, 0.131151
2023/06/17 10:02:15.297, True, 2.984, 0.129168
2023/06/17 10:02:15.793, True, 3.033, 0.132067
2023/06/17 10:02:16.297, True, 3.316, 0.130617
2023/06/17 10:02:16.801, True, 2.984, 0.132448
2023/06/17 10:02:17.296, True, 3.038, 0.130312
2023/06/17 10:02:17.801, True, 3.311, 0.129549
2023/06/17 10:02:18.305, True, 2.985, 0.132372
2023/06/17 10:02:18.801, True, 3.369, 0.132067
2023/06/17 10:02:19.305, True, 2.984, 0.132372
2023/06/17 10:02:19.809, True, 2.985, 0.133059
2023/06/17 10:02:20.305, True, 3.033, 0.133288
2023/06/17 10:02:20.809, True, 3.316, 0.129625
2023/06/17 10:02:21.305, True, 3.032, 0.133516
2023/06/17 10:02:21.809, True, 3.319, 0.132906
2023/06/17 10:02:22.313, True, 2.983, 0.132067
2023/06/17 10:02:22.817, True, 3.316, 0.132372
2023/06/17 10:02:23.312, True, 3.033, 0.131609
2023/06/17 10:02:23.817, True, 2.984, 0.130465
2023/06/17 10:02:24.321, True, 3.316, 0.133516
2023/06/17 10:02:24.817, True, 3.032, 0.131685
2023/06/17 10:02:25.321, True, 2.984, 0.133059
2023/06/17 10:02:25.825, True, 3.316, 0.133364
2023/06/17 10:02:26.321, True, 3.035, 0.130388
2023/06/17 10:02:26.825, True, 2.982, 0.133364
2023/06/17 10:02:27.328, True, 2.984, 0.130007
2023/06/17 10:02:27.825, True, 3.033, 0.131533
2023/06/17 10:02:28.329, True, 2.985, 0.130770
2023/06/17 10:02:28.833, True, 3.316, 0.132143
2023/06/17 10:02:29.328, True, 3.033, 0.130541
2023/06/17 10:02:29.833, True, 2.986, 0.132830
2023/06/17 10:02:30.337, True, 2.983, 0.132219
2023/06/17 10:02:30.832, True, 3.033, 0.133516
2023/06/17 10:02:31.337, True, 2.985, 0.129549
2023/06/17 10:02:31.841, True, 3.315, 0.128862
2023/06/17 10:02:32.337, True, 3.033, 0.131304
2023/06/17 10:02:32.840, True, 3.316, 0.129549
2023/06/17 10:02:33.344, True, 3.316, 0.130388
2023/06/17 10:02:33.840, True, 3.033, 0.129854
2023/06/17 10:02:34.344, True, 2.984, 0.130465
2023/06/17 10:02:34.849, True, 3.316, 0.130541
2023/06/17 10:02:35.352, True, 2.984, 0.129931
2023/06/17 10:02:35.848, True, 3.370, 0.130922
2023/06/17 10:02:36.353, True, 2.984, 0.131533
2023/06/17 10:02:36.856, True, 2.984, 0.131838
2023/06/17 10:02:37.353, True, 3.370, 0.131304
2023/06/17 10:02:37.857, True, 2.984, 0.129854
2023/06/17 10:02:38.353, True, 3.033, 0.131991
2023/06/17 10:02:38.856, True, 2.984, 0.131914
2023/06/17 10:02:39.360, True, 3.316, 0.131762
2023/06/17 10:02:39.865, True, 2.985, 0.131228
2023/06/17 10:02:40.361, True, 3.033, 0.130694
2023/06/17 10:02:40.865, True, 2.984, 0.132143
2023/06/17 10:02:41.369, True, 3.316, 0.132906
2023/06/17 10:02:41.864, True, 3.032, 0.129473
2023/06/17 10:02:42.369, True, 2.984, 0.129625
2023/06/17 10:02:42.864, True, 3.033, 0.130465
2023/06/17 10:02:43.368, True, 2.985, 0.129320
2023/06/17 10:02:43.873, True, 3.316, 0.130999
2023/06/17 10:02:44.368, True, 3.033, 0.130312
2023/06/17 10:02:44.872, True, 2.984, 0.132219
2023/06/17 10:02:45.376, True, 2.985, 0.131685
2023/06/17 10:02:45.873, True, 3.031, 0.131456
2023/06/17 10:02:46.376, True, 2.984, 0.130922
2023/06/17 10:02:46.881, True, 3.316, 0.129320
2023/06/17 10:02:47.384, True, 2.985, 0.132143
2023/06/17 10:02:47.881, True, 3.033, 0.131685
2023/06/17 10:02:48.385, True, 2.984, 0.130617
2023/06/17 10:02:48.888, True, 3.316, 0.131609
2023/06/17 10:02:49.384, True, 3.033, 0.130007
2023/06/17 10:02:49.888, True, 2.985, 0.128862
2023/06/17 10:02:50.392, True, 2.984, 0.129778
2023/06/17 10:02:50.889, True, 3.374, 0.131838
2023/06/17 10:02:51.393, True, 2.981, 0.132448
2023/06/17 10:02:51.896, True, 2.984, 0.130159
2023/06/17 10:02:52.401, True, 2.984, 0.131685
2023/06/17 10:02:52.896, True, 3.032, 0.129168
2023/06/17 10:02:53.400, True, 2.985, 0.129931
2023/06/17 10:02:53.904, True, 3.316, 0.130999
2023/06/17 10:02:54.400, True, 3.033, 0.132296
2023/06/17 10:02:54.905, True, 2.984, 0.128099
2023/06/17 10:02:55.409, True, 2.984, 0.130541
2023/06/17 10:02:55.905, True, 3.034, 0.130541
2023/06/17 10:02:56.409, True, 3.314, 0.130159
2023/06/17 10:02:56.912, True, 2.988, 0.130999
2023/06/17 10:02:57.408, True, 3.030, 0.129473
2023/06/17 10:02:57.912, True, 2.984, 0.131075
2023/06/17 10:02:58.416, True, 3.315, 0.131228
2023/06/17 10:02:58.913, True, 3.033, 0.130541
2023/06/17 10:02:59.416, True, 2.985, 0.131991
2023/06/17 10:02:59.920, True, 2.984, 0.130236
2023/06/17 10:03:00.425, True, 3.316, 0.131075
2023/06/17 10:03:00.920, True, 3.033, 0.132067
2023/06/17 10:03:01.425, True, 2.985, 0.134051
2023/06/17 10:03:01.921, True, 3.032, 0.132143
2023/06/17 10:03:02.424, True, 3.316, 0.129702
2023/06/17 10:03:02.929, True, 2.989, 0.131304
2023/06/17 10:03:03.424, True, 3.028, 0.130770
2023/06/17 10:03:03.929, True, 2.984, 0.132219
2023/06/17 10:03:04.432, True, 3.319, 0.131380
2023/06/17 10:03:04.929, True, 3.035, 0.130388
2023/06/17 10:03:05.433, True, 2.983, 0.132601
2023/06/17 10:03:05.937, True, 3.312, 0.131456
2023/06/17 10:03:06.433, True, 3.032, 0.129244
2023/06/17 10:03:06.936, True, 2.984, 0.131609
2023/06/17 10:03:07.441, True, 2.985, 0.131380
2023/06/17 10:03:07.936, True, 3.032, 0.131151
2023/06/17 10:03:08.441, True, 3.317, 0.129778
2023/06/17 10:03:08.936, True, 3.033, 0.131609
2023/06/17 10:03:09.440, True, 3.319, 0.129320
2023/06/17 10:03:09.943, True, 2.982, 0.130694
2023/06/17 10:03:10.441, True, 3.033, 0.128862
2023/06/17 10:03:10.944, True, 3.316, 0.130694
2023/06/17 10:03:11.447, True, 2.985, 0.129397
2023/06/17 10:03:11.943, True, 3.033, 0.130007
2023/06/17 10:03:12.448, True, 2.984, 0.129168
2023/06/17 10:03:12.952, True, 3.317, 0.130236
2023/06/17 10:03:13.448, True, 3.036, 0.130922
2023/06/17 10:03:13.952, True, 2.980, 0.129625
2023/06/17 10:03:14.456, True, 2.986, 0.132143
2023/06/17 10:03:14.952, True, 3.370, 0.129320
2023/06/17 10:03:15.456, True, 2.983, 0.130312
2023/06/17 10:03:15.960, True, 2.986, 0.130007
2023/06/17 10:03:16.456, True, 3.370, 0.130541
2023/06/17 10:03:16.960, True, 2.982, 0.133135
2023/06/17 10:03:17.456, True, 3.033, 0.130465
2023/06/17 10:03:17.960, True, 2.988, 0.127565
2023/06/17 10:03:18.464, True, 2.981, 0.133211
2023/06/17 10:03:18.960, True, 3.369, 0.129778
2023/06/17 10:03:19.464, True, 2.988, 0.129397
2023/06/17 10:03:19.968, True, 2.981, 0.129778
2023/06/17 10:03:20.464, True, 3.032, 0.129244
2023/06/17 10:03:20.968, True, 3.321, 0.132601
2023/06/17 10:03:21.472, True, 2.985, 0.131609
2023/06/17 10:03:21.968, True, 3.027, 0.129625
2023/06/17 10:03:22.472, True, 2.989, 0.130465
2023/06/17 10:03:22.976, True, 3.318, 0.129931
2023/06/17 10:03:23.480, True, 2.983, 0.128328
2023/06/17 10:03:23.976, True, 3.034, 0.129931
2023/06/17 10:03:24.480, True, 2.979, 0.132601
2023/06/17 10:03:24.984, True, 3.317, 0.127413
2023/06/17 10:03:25.480, True, 3.036, 0.130236
2023/06/17 10:03:25.984, True, 2.980, 0.130999
2023/06/17 10:03:26.488, True, 2.989, 0.132906
2023/06/17 10:03:26.984, True, 3.033, 0.129320
2023/06/17 10:03:27.488, True, 2.985, 0.131456
2023/06/17 10:03:27.992, True, 3.309, 0.131533
2023/06/17 10:03:28.488, True, 3.039, 0.130846
2023/06/17 10:03:28.992, True, 2.979, 0.130770
2023/06/17 10:03:29.496, True, 3.322, 0.129473
2023/06/17 10:03:30.000, True, 2.980, 0.130922
2023/06/17 10:03:30.496, True, 3.372, 0.132067
2023/06/17 10:03:31.000, True, 2.982, 0.130770
2023/06/17 10:03:31.504, True, 2.984, 0.130770
2023/06/17 10:03:32.001, True, 3.034, 0.130083
2023/06/17 10:03:32.504, True, 2.983, 0.129702
2023/06/17 10:03:33.008, True, 3.319, 0.132982
2023/06/17 10:03:33.504, True, 3.030, 0.130770
2023/06/17 10:03:34.007, True, 2.986, 0.130770
2023/06/17 10:03:34.512, True, 3.315, 0.132753
2023/06/17 10:03:35.008, True, 3.032, 0.130159
2023/06/17 10:03:35.512, True, 2.984, 0.130312
2023/06/17 10:03:36.008, True, 3.033, 0.130770
2023/06/17 10:03:36.512, True, 2.989, 0.129778
2023/06/17 10:03:37.016, True, 3.313, 0.131151
2023/06/17 10:03:37.520, True, 2.983, 0.129473
2023/06/17 10:03:38.016, True, 3.033, 0.130007
2023/06/17 10:03:38.520, True, 3.316, 0.131456
2023/06/17 10:03:39.024, True, 2.984, 0.128557
2023/06/17 10:03:39.520, True, 3.370, 0.130388
2023/06/17 10:03:40.024, True, 2.984, 0.130694
2023/06/17 10:03:40.528, True, 2.654, 0.131533
2023/06/17 10:03:41.024, True, 3.032, 0.130388
2023/06/17 10:03:41.528, True, 3.320, 0.129320
2023/06/17 10:03:42.032, True, 2.980, 0.131228
2023/06/17 10:03:42.528, True, 3.369, 0.129549
2023/06/17 10:03:43.032, True, 2.985, 0.127413
2023/06/17 10:03:43.536, True, 2.984, 0.127794
2023/06/17 10:03:44.033, True, 3.037, 0.129931
2023/06/17 10:03:44.536, True, 2.981, 0.130846
2023/06/17 10:03:45.040, True, 3.316, 0.131609
2023/06/17 10:03:45.536, True, 3.033, 0.130770
2023/06/17 10:03:46.040, True, 2.984, 0.130083
2023/06/17 10:03:46.536, True, 3.033, 0.129473
2023/06/17 10:03:47.040, True, 2.987, 0.130770
2023/06/17 10:03:47.544, True, 2.987, 0.130999
2023/06/17 10:03:48.040, True, 3.030, 0.130770
2023/06/17 10:03:48.544, True, 3.315, 0.129549
2023/06/17 10:03:49.048, True, 2.984, 0.128557
2023/06/17 10:03:49.544, True, 3.033, 0.130083
2023/06/17 10:03:50.048, True, 2.985, 0.133059
2023/06/17 10:03:50.552, True, 3.315, 0.130159
2023/06/17 10:03:51.048, True, 3.033, 0.130770
2023/06/17 10:03:51.552, True, 2.984, 0.132219
2023/06/17 10:03:52.056, True, 3.315, 0.131914
2023/06/17 10:03:52.560, True, 3.317, 0.131228
2023/06/17 10:03:53.056, True, 3.032, 0.129931
2023/06/17 10:03:53.560, True, 2.984, 0.130846
2023/06/17 10:03:54.064, True, 2.984, 0.131838
2023/06/17 10:03:54.560, True, 3.033, 0.132677
2023/06/17 10:03:55.064, True, 2.988, 0.131304
2023/06/17 10:03:55.568, True, 2.981, 0.129015
2023/06/17 10:03:56.064, True, 3.032, 0.130922
2023/06/17 10:03:56.568, True, 2.985, 0.133059
2023/06/17 10:03:57.072, True, 2.988, 0.131991
2023/06/17 10:03:57.568, True, 3.366, 0.130312
2023/06/17 10:03:58.072, True, 2.987, 0.130617
2023/06/17 10:03:58.576, True, 2.982, 0.129168
2023/06/17 10:03:59.072, True, 3.032, 0.130922
2023/06/17 10:03:59.576, True, 2.985, 0.128099
2023/06/17 10:04:00.080, True, 3.316, 0.131075
2023/06/17 10:04:00.584, True, 2.984, 0.132067
2023/06/17 10:04:01.080, True, 3.033, 0.130388
2023/06/17 10:04:01.584, True, 2.985, 0.131609
2023/06/17 10:04:02.088, True, 2.983, 0.130694
2023/06/17 10:04:02.584, True, 3.033, 0.129931
2023/06/17 10:04:03.088, True, 2.984, 0.132067
2023/06/17 10:04:03.592, True, 2.984, 0.132753
2023/06/17 10:04:04.088, True, 3.033, 0.131075
2023/06/17 10:04:04.592, True, 2.985, 0.130770
2023/06/17 10:04:05.096, True, 3.316, 0.131304
2023/06/17 10:04:05.600, True, 2.984, 0.128862
2023/06/17 10:04:06.096, True, 3.033, 0.130465
2023/06/17 10:04:06.600, True, 2.984, 0.130388
2023/06/17 10:04:07.104, True, 2.984, 0.129015
2023/06/17 10:04:07.600, True, 3.370, 0.130922
2023/06/17 10:04:08.104, True, 2.988, 0.127642
2023/06/17 10:04:08.608, True, 2.981, 0.131075
2023/06/17 10:04:09.104, True, 3.033, 0.129473
2023/06/17 10:04:09.608, True, 3.316, 0.130694
2023/06/17 10:04:10.112, True, 2.988, 0.130694
2023/06/17 10:04:10.608, True, 3.029, 0.131762
2023/06/17 10:04:11.112, True, 2.984, 0.129702
2023/06/17 10:04:11.616, True, 3.316, 0.128786